Find Starlink 34508

NORAD ID: 64601 Int'l Des: 2025-137 Owner: SPXS Country: US Constellation: starlink operational
LEOCIRCULAR

当前视图

正在加载3D地球...

关于 Starlink 34508

正在加载描述...

即将过境

Passes for default location (London). Set your location on the main map for personalized predictions.

高度历史

Loading altitude history...

两行轨道根数

1 64601U 25137H 26149.79191319 .00020133 00000-0 68990-3 0 9991
2 64601 53.1608 318.4086 0000997 72.1205 287.9904 15.30206810 53153
Epoch: May 29, 2026 • Age: 20 hours

当前状态

高度 481.8 km
速度 7.62 km/s
星下点 -23.09°S, 178.98°E
发射日期 Jun 25, 2025
运行时间 0.9 years
类型 internet

技术详情

分类 Payload
质量 575.00 kg
干质量 530.00 kg
总质量 575.00 kg
长度 0.30 m
直径 4.10 m
跨度 29.00 m
形状 Box + pan
制造商 SPXS
平台类型 Starlink V2MO
阶段状态 In Orbit
所有者/国家 SPXS/US

Most Searched